This demonstration page uses our WeatherBlox Daily Observations layout. Learn more.

Left ArrowRight Arrow

Hourly Observations for February 25, 2016

Temp ( °F °C ) Dew Point ( °F °C ) Humidity (%) Winds ( mph kmh ) Pressure ( in mb ) Visibility ( mi km ) Precip ( " mm )
12:15 am 00:15 Clear 28 -2.1 20 -6.9 70 70 NNW 9 15 30.33 1027 10 16 N/A
12:35 am 00:35 Clear 28 -2.5 20 -6.8 73 73 NNW 9 15 30.33 1027 10 16 N/A
12:55 am 00:55 Clear 27 -2.6 20 -6.7 74 74 NNW 9 15 30.33 1027 10 16 N/A
1:15 am 01:15 Clear 27 -2.7 20 -6.8 74 74 NNW 10 17 30.33 1027 10 16 N/A
1:35 am 01:35 Clear 27 -2.8 19 -7 73 73 NNW 10 17 30.33 1027 10 16 N/A
1:55 am 01:55 Clear 26 -3.1 19 -7.3 73 73 NNW 9 15 30.33 1027 10 16 N/A
2:15 am 02:15 Clear 26 -3.2 19 -7.5 72 72 NNW 9 15 30.33 1027 10 16 N/A
2:35 am 02:35 Clear 27 -2.7 19 -7.5 70 70 NW 10 17 30.33 1027 10 16 N/A
2:55 am 02:55 Clear 26 -3.5 19 -7.5 74 74 NW 9 15 30.36 1028 10 16 N/A
3:15 am 03:15 Partly Cloudy 25 -3.7 19 -7.5 75 75 NW 9 15 30.36 1028 10 16 N/A
3:35 am 03:35 Partly Cloudy 25 -3.7 19 -7.3 76 76 NW 12 19 30.36 1028 10 16 N/A
3:55 am 03:55 Clear 27 -2.9 19 -7.2 73 73 NW 12 19 30.36 1028 10 16 N/A
4:15 am 04:15 Clear 27 -2.6 19 -7.1 72 72 NW 12 19 30.36 1028 10 16 N/A
4:35 am 04:35 Clear 27 -2.6 19 -7.2 71 71 NW 12 19 30.36 1028 10 16 N/A
4:55 am 04:55 Clear 26 -3.3 19 -7.5 73 73 NW 8 13 30.36 1028 10 16 N/A
5:15 am 05:15 Clear 25 -3.8 19 -7.5 76 76 NW 7 11 30.36 1028 10 16 N/A
5:35 am 05:35 Clear 26 -3.6 19 -7.2 76 76 NW 12 19 30.36 1028 10 16 N/A
5:55 am 05:55 Clear 26 -3.1 19 -7.3 73 73 NW 13 20 30.39 1029 10 16 N/A
6:15 am 06:15 Clear 26 -3.1 19 -7.3 73 73 NW 12 19 30.39 1029 10 16 N/A
6:35 am 06:35 Clear 27 -2.9 19 -7.2 73 73 NW 15 24 30.39 1029 10 16 N/A
6:55 am 06:55 Partly Cloudy 27 -2.6 19 -7.3 70 70 NNW 14 22 30.42 1030 10 16 N/A
7:15 am 07:15 Mostly Cloudy 28 -2.3 19 -7 70 70 NNW 8 13 30.42 1030 10 16 N/A
7:35 am 07:35 Cloudy 28 -2.4 20 -6.8 72 72 NNW 8 13 30.42 1030 10 16 N/A
7:55 am 07:55 Mostly Cloudy 27 -2.6 20 -6.8 73 73 NW 9 15 30.42 1030 10 16 N/A
8:15 am 08:15 Partly Cloudy 26 -3.1 19 -7 75 75 NW 9 15 30.45 1031 10 16 N/A
8:35 am 08:35 Cloudy 28 -2 20 -6.8 70 70 NW 13 20 30.45 1031 10 16 N/A
8:55 am 08:55 Cloudy 30 -1.2 19 -7.2 64 64 NNW 15 24 30.45 1031 10 16 N/A
9:15 am 09:15 Cloudy 30 -1 19 -7.3 63 63 NNW 13 20 30.48 1032 10 16 N/A
9:35 am 09:35 Cloudy 30 -1 19 -7.1 64 64 NW 12 19 30.48 1032 10 16 N/A
9:55 am 09:55 Cloudy 31 -0.3 19 -7.1 61 61 NNW 13 20 30.45 1031 10 16 N/A
10:15 am 10:15 Cloudy 32 -0.1 20 -6.9 61 61 NW 15 24 30.45 1031 10 16 N/A
10:35 am 10:35 Cloudy 33 0.4 19 -7.3 57 57 NNW 14 22 30.45 1031 10 16 N/A
10:55 am 10:55 Cloudy 33 0.8 18 -7.9 53 53 N 13 20 30.48 1032 10 16 N/A
11:15 am 11:15 Cloudy 33 0.6 18 -8 53 53 N 13 20 30.48 1032 10 16 N/A
11:35 am 11:35 Cloudy 34 0.9 17 -8.1 51 51 N 14 22 30.48 1032 10 16 N/A
11:55 am 11:55 Cloudy 34 0.9 18 -7.9 52 52 N 17 28 30.48 1032 10 16 N/A
12:15 pm 12:15 Cloudy 34 1 18 -7.7 53 53 N 14 22 30.48 1032 10 16 N/A
12:35 pm 12:35 Cloudy 35 1.5 18 -7.8 50 50 N 13 20 30.48 1032 10 16 N/A
12:55 pm 12:55 Cloudy 36 2 18 -7.8 49 49 N 14 22 30.48 1032 10 16 N/A
1:15 pm 13:15 Partly Cloudy 37 2.6 18 -7.8 47 47 N 9 15 30.45 1031 10 16 N/A
1:35 pm 13:35 Sunny 37 2.5 17 -8.2 46 46 N 12 19 30.45 1031 10 16 N/A
1:55 pm 13:55 Sunny 38 3.1 18 -8 44 44 N 14 22 30.45 1031 10 16 N/A
2:15 pm 14:15 Sunny 38 3.6 18 -7.9 43 43 N 9 15 30.42 1030 10 16 N/A
2:35 pm 14:35 Sunny 39 3.9 18 -7.8 43 43 NNW 13 20 30.42 1030 10 16 N/A
2:55 pm 14:55 Sunny 39 4 18 -7.7 43 43 N 12 19 30.42 1030 10 16 N/A
3:15 pm 15:15 Sunny 40 4.4 17 -8.3 40 40 NNW 8 13 30.42 1030 10 16 N/A
3:35 pm 15:35 Sunny 40 4.5 17 -8.3 39 39 NW 7 11 30.42 1030 10 16 N/A
3:55 pm 15:55 Sunny 40 4.6 17 -8.4 39 39 NW 7 11 30.42 1030 10 16 N/A
4:15 pm 16:15 Sunny 41 4.9 16 -8.8 37 37 NNW 3 6 30.39 1029 10 16 N/A
4:35 pm 16:35 Sunny 40 4.7 16 -8.7 38 38 NW 6 9 30.39 1029 10 16 N/A
4:55 pm 16:55 Sunny 41 4.9 16 -8.7 37 37 WNW 7 11 30.39 1029 10 16 N/A
5:15 pm 17:15 Sunny 40 4.5 16 -9.1 37 37 N N/A 30.39 1029 10 16 N/A
5:35 pm 17:35 Sunny 40 4.5 16 -9 37 37 NW 3 6 30.39 1029 10 16 N/A
5:55 pm 17:55 Sunny 39 4 17 -8.6 40 40 N N/A 30.39 1029 10 16 N/A
6:15 pm 18:15 Sunny 37 3 16 -8.8 42 42 N N/A 30.39 1029 10 16 N/A
6:35 pm 18:35 Clear 35 1.8 17 -8.4 47 47 N N/A 30.42 1030 10 16 N/A
6:55 pm 18:55 Clear 34 1.3 17 -8.3 49 49 N N/A 30.42 1030 10 16 N/A
7:15 pm 19:15 Clear 31 -0.3 19 -7.5 59 59 SSE 5 7 30.42 1030 10 16 N/A
7:35 pm 19:35 Clear 32 -0.1 18 -8 56 56 SE 6 9 30.42 1030 10 16 N/A
7:55 pm 19:55 Clear 30 -0.9 17 -8.5 57 57 SSE 5 7 30.45 1031 10 16 N/A
8:15 pm 20:15 Clear 29 -1.6 16 -8.7 59 59 S 3 6 30.45 1031 10 16 N/A
8:35 pm 20:35 Clear 27 -2.6 17 -8.6 64 64 S 3 6 30.42 1030 10 16 N/A
8:55 pm 20:55 Clear 29 -1.7 17 -8.6 60 60 S 6 9 30.42 1030 10 16 N/A
9:15 pm 21:15 Clear 29 -1.6 17 -8.5 60 60 S 5 7 30.42 1030 10 16 N/A
9:35 pm 21:35 Clear 29 -1.5 17 -8.2 61 61 S 7 11 30.42 1030 10 16 N/A
9:55 pm 21:55 Clear 28 -2.5 17 -8.5 64 64 S 7 11 30.42 1030 10 16 N/A
10:15 pm 22:15 Clear 29 -1.9 18 -7.9 64 64 S 6 9 30.42 1030 10 16 N/A
10:35 pm 22:35 Clear 30 -1.3 18 -7.9 61 61 S 7 11 30.42 1030 10 16 N/A
10:55 pm 22:55 Clear 28 -2 18 -7.9 64 64 SSW 6 9 30.42 1030 10 16 N/A
11:15 pm 23:15 Clear 27 -2.6 18 -8 67 67 SSW 7 11 30.39 1029 10 16 N/A
11:35 pm 23:35 Clear 25 -3.7 17 -8.4 70 70 SSW 7 11 30.39 1029 10 16 N/A
11:55 pm 23:55 Clear 25 -3.7 17 -8.1 72 72 SSW 7 11 30.39 1029 10 16 N/A

Powered by AerisWeather